User: anonymous   Login
Location: Chervonnoye
(48.6000°N, 34.4000°E)
Time: 11:03:31
(UTC+00:00)
Language:

M-CUBED/EXP-1 PRIME - Orbit

View from above orbital plane
View from above orbital plane
View from above satellite
View from above satellite

Ground track
Ground track

The orbit data is extracted from the following two-line orbital elements,

1 37855U 11061F   21334.87476333  .00003811  00000-0  18476-3 0  9993
2 37855 101.7234 344.8544 0163223 295.4007  63.0388 15.08843654551265
Epoch (UTC): 30 November 2021 20:59:39
Eccentricity: 0.0163223
inclination: 101.7234°
perigee height: 427 km
apogee height: 652 km
right ascension of ascending node: 344.8544°
argument of perigee: 295.4007°
revolutions per day: 15.08843654
mean anomaly at epoch: 63.0388°
orbit number at epoch: 55126

The dashed part of the orbit path shows where the satellite is in the earth's shadow,  

DLR